www.pogodaiklimat.ru

Погода и климат >> Архив погоды >> Мексика >> Soto La Marina


ПОГОДА в Soto La Marina

  • Прогноз погоды в Soto La Marina
  • Монитор погоды в Soto La Marina
  • Климат города

АРХИВ ПОГОДЫ в Soto La Marina

Время (UTC), дата Ветер
(напр.,м/с)
 
Видим.   Явления Облачность Т
(С)
Тd
(С)
f
(%)
Тe
(С)
Тes
(С)
Комфортность P
(гПа)
Po
(гПа)
Тmin
(С)
Tmax
(С)
R
(мм)
R24
(мм)
S
(см)
12 15.11 штиль 0 600 м туман ясно +18.8 +18.8 100 +20 +20 1014.2 1011.7 +18.3 +31.4
15 15.11 штиль 0 10 км 3/0
[Cs]
+20.0 +19.7 98 +23 +27 комфорт 1015.8 1013.3
18 15.11 В 4 10 км 4/4 600 м
[Cu med, cong]
+32.6 +19.7 47 +39 +43 очень
душно
1012.2 1009.8
21 15.11 В 4 10 км 4/4 600 м
[Cu med, cong]
+32.6 +19.7 47 +39 +41 очень
душно
1012.2 1009.8
00 16.11 штиль 0 9000 м ясно +27.8 +20.5 65 +35 +35 очень
душно
1013.1 1010.7 +17.8 +33.4
12 16.11 штиль 0 6000 м ясно +20.0 +20.0 100 +23 +23 комфорт 1016.7 1014.2 +18.9
15 16.11 штиль 0 3000 м туман на расстоянии ясно +19.6 +19.6 100 +22 +26 комфорт 1018.5 1016.0
18 16.11 СВ 2 10 км ясно +31.9 +20.5 51 +39 +50 очень
душно
1017.5 1015.0 +18.3 +32.0
21 16.11 В 3 10 км 4/4 600 м
[Cu med, cong]
+31.8 +18.1 44 +36 +39 очень
душно
1014.5 1012.1
00 17.11 ЮВ 1 10 км ясно +27.2 +20.3 66 +34 +34 очень
душно
1015.2 1012.8 +18.3 +33.1
03 17.11 ЮВ 1 5000 м 3/3 600 м
[Cu med, cong]
+23.7 +22.2 91 +31 +31 очень
душно
1017.2 1014.8
12 17.11 СЗ 1 6000 м ясно +19.3 +19.3 100 +23 +23 комфорт 1015.8 1013.3 +19.2 +33.1
15 17.11 ЮЗ 1 10 км ясно +21.3 +17.2 77 +25 +29 комфорт 1016.8 1014.3
18 17.11 Ю 3 10 км 1/1 630 м
[Cu med, cong]
+31.8 +19.5 48 +38 +46 очень
душно
1015.3 1012.8 +18.3 +31.9
21 17.11 ЮВ 3 10 км ясно +33.7 +18.5 41 +38 +44 очень
душно
1011.8 1009.4
00 18.11 В 1 10 км ясно +27.6 +19.8 62 +33 +33 очень
душно
1012.1 1009.7 +18.3 +34.0
03 18.11 ЮВ 2 6000 м ясно +24.1 +21.4 85 +31 +31 очень
душно
1013.7 1011.3
12 18.11 З 1 6000 м ясно +16.9 +16.4 97 +18 +18 1010.6 1008.1 +16.6
15 18.11 штиль 0 10 км ясно +21.3 +17.6 79 +25 +29 комфорт 1011.6 1009.1
18 18.11 штиль 0 10 км ясно +30.8 +18.8 49 +36 +51 опасность
солнечного
удара
1010.4 1007.9 +16.6 +30.9
21 18.11 В 2 10 км ясно +33.5 +19.0 42 +38 +45 очень
душно
1008.2 1005.8
12 19.11 СЗ 5 6000 м 10/10 300 м
[St]
+21.2 +4.7 34 +22 +22 комфорт 1022.1 1019.6 +20.8 +34.2
15 19.11 СЗ 9 10 км 10/0 2000 м
[Ac und]
+18.7 +4.0 38 +18 +18 1025.3 1022.8
18 19.11 СЗ 5 10 км 4/0 2000 м
[Ac As]
+21.2 +4.1 33 +21 +26 комфорт 1024.9 1022.4 +18.6 +21.3
21 19.11 С 3 10 км 10/0 2000 м
[Ac As]
+21.4 +2.2 28 +21 +23 комфорт 1022.1 1019.6
00 20.11 С 3 10 км 10/0 2000 м
[Ac As]
+19.9 +19 +19 1022.6 1020.1 +18.6 +23.0
03 20.11 З 1 6000 м 10/0 2000 м
[Ac As]
+17.2 +5.8 47 +18 +18 1023.6 1021.1
06 20.11 штиль 0 10 км ясно +13.8 +8.1 68 +14 +14 1022.6 1020.1 +13.7 +23.0
09 20.11 штиль 0 5000 м 3/3 600 м
[Cu med, cong]
+11.8 +6.7 71 +11 +11 1020.6 1018.1
12 20.11 СЗ 1 10 км 10/0 2000 м
[Ac As]
+12.5 +8.2 75 +13 +13 1019.7 1017.2 +23.0
15 20.11 З 2 10 км 10/0 2000 м
[Ac As]
+15.4 +7.5 59 +15 +16 1020.8 1018.3
18 20.11 С 1 10 км ясно +22.9 +10.0 44 +25 +38 комфорт 1019.9 1017.4 +11.4 +23.0
21 20.11 В 2 10 км 5/5 930 м
[Sc diur, vesp]
+25.7 +13.6 47 +28 +31 жарко 1015.6 1013.1
00 21.11 В 2 10 км 9/9 600 м
[Sc diur, vesp]
+23.4 +14.6 58 +27 +27 душно 1014.8 1012.6 +11.4 +27.0
03 21.11 штиль 0 5000 м ясно +20.2 +16.9 81 +23 +23 комфорт 1016.6 1014.2
06 21.11 штиль 0 5000 м 5/5 960 м
[Sc diur, vesp]
+18.0 +15.3 84 +18 +18 1015.4 1013.0 +17.9 +27.1
09 21.11 штиль 0 5000 м 4/4 960 м
[Sc diur, vesp]
+16.3 +14.4 89 +16 +16 1013.4 1010.9
12 21.11 СЗ 1 6000 м ясно +14.3 +13.2 93 +15 +15 1012.0 1009.5 +14.2 +27.1
15 21.11 СЗ 1 10 км ясно +17.2 +11.9 71 +18 +22 1013.1 1010.6
18 21.11 штиль 0 10 км ясно +27.4 +14.4 45 +30 +44 жарко 1011.5 1009.0 +13.6 +27.5
21 21.11 Ю 1 10 км ясно +32.5 +16.5 38 +35 +43 душно 1008.0 1005.6
00 22.11 В 3 10 км 3/0
[Ci sp]
+27.6 +19.1 60 +33 +33 очень
душно
1008.4 1006.0 +13.6 +33.7
03 22.11 штиль 0 6000 м ясно +22.4 +19.3 83 +28 +28 душно 1011.3 1008.9

 

Местоположение метеостанции Soto La Marina (Мексика): широта 23.77 долгота -98.20 высота над уровнем моря 21 м.

В архиве по умолчанию представлена погода в Soto La Marina за последнюю неделю. Архивные данные за месяц целиком и за предыдущие месяцы, начиная с января 2011 года, Вы можете получить, выбрав интересующий диапазон дат из раскрывающегося списка и нажав кнопку "Ввод!".

Внимание! Время в таблицах - всемирное. Для получения местного времени необходимо прибавить поправку, которая в Soto La Marina равна -6 ч.

Смотрите также архив погоды в соседних городах и на ближайших метеорологических станциях:

Погода в Ciudad Victoria (Мексика) (95 км)
Погода в Tampico (Мексика) (178 км)
Погода в Tamuin (Мексика) (205 км)
Погода в Rio Verde (Мексика) (274 км)
Погода в Matlapa (Мексика) (280 км)
Погода в Monterrey (Мексика) (304 км)
Погода в Tuxpan (Мексика) (324 км)
Погода в San Luis Potosi (Мексика) (328 км)
Погода в Saltillo (Мексика) (334 км)
Погода в Pachuca (Мексика) (409 км)

Пояснения к столбцам:

Ветер - указаны скорость ветра в м/с - средняя за 10 мин, порывы в срок и между сроками (в фигурных скобках) и направление, откуда дует ветер: С - северный, СВ - северо-восточный, В - восточный, ЮВ - юго-восточный, Ю - южный, ЮЗ - юго-западный, З - западный, СЗ - северо-западный.
Видимость - горизонтальная дальность видимости в метрах или километрах. При видимости от 1 до 10 км при отсутствии осадков обычно наблюдается дымка, при ухудшении видимости до 1 км и менее - туман. В сухую погоду видимость может ухудшаться дымом, пылью или мглою.
Явления - указаны атмосферные явления, наблюдавшиеся в срок или в последний час перед сроком; фигурными скобками обозначены явления, наблюдавшиеся между сроками (за 1-3 часа до срока); квадратными скобками обозначены град или гололедные отложения с указанием их диаметра в мм.
Облачность - указаны через наклонную черту общая и нижняя облачность в баллах и высота нижней границы облаков в метрах; квадратными скобками обозначены формы облаков: Ci - перистые, Cs - перисто-слоистые, Cc - перисто-кучевые, Ac - высококучевые, As - высокослоистые, Sc - слоисто-кучевые, Ns - слоисто-дождевые, Cu - кучевые, Cb - кучево-дождевые. Подробнее классификацию облаков см. в Атласе облаков (PDF).
T - Температура воздуха - температура, измеренная на высоте 2 м над землей.
Td - Температура точки росы - температура, при понижении до которой содержащийся в воздухе водяной пар достигнет насыщения.
f - Относительная влажность воздуха - влажноcть воздуха, измеренная на высоте 2 м над землей.
Te - Эффективная температура - температура, которую ощущает одетый по сезону человек в тени. Характеристика душности погоды. При расчете учитывается влияние влажности воздуха и скорости ветра на теплоощущения человека.
Tes - Эффективная температура на солнце - температура, которую ощущает человек, с поправкой на солнечный нагрев. Характеристика знойности погоды. Зависит от высоты солнца над горизонтом, облачности и скорости ветра. Ночью, в пасмурную погоду, а также при ветре 12 м/с и более поправка равна нулю.
P - Атмосферное давление - приведенное к уровню моря атмосферное давление.
Po - Атмосферное давление - измеренное на уровне метеостанции атмосферное давление.
Tmin - Минимальная температура - минимум температуры воздуха на высоте 2 м над землей.
Tmax - Максимальная температура - максимум температуры воздуха на высоте 2 м над землей.
R - Количество осадков - Количество выпавших осадков за период времени, мм. При наведении курсора мыши на число - период времени, за который выпало указанное количество осадков.
R24 - Количество осадков - Количество выпавших осадков за 24 часа, мм.
S - Снежный покров - Высота снежного покрова, см. При наведении курсора мыши на число - состояние снежного покрова и степень покрытия местности в баллах.